Weather observations for the past three days for
Manassas, Manassas Regional Airport/Harry P. Davis Field
Imperial (Metric)
Date Time (edt) Wind (mph) Vis. (mi.) Weather Sky Cond. Temperature (ºF) Relative Humidity Wind Chill (°F) Heat Index (°F) Pressure Precipitation (in)
Air Dwpt 6 hour altimeter (in) sea level (mb) 1 hr 3 hr 6 hr
Max. Min.
20 12:56 SE 8 10.00 Mostly Cloudy SCT026 BKN100 81 71.1 72% 85 30.09 1019.4
20 11:56 SE 7 10.00 Mostly Cloudy FEW023 SCT033 BKN045 82 71.1 69% 86 30.11 1019.7
20 10:56 SE 6 10.00 Mostly Cloudy SCT019 BKN028 81 72 74% 85 30.11 1019.9
20 09:56 S 5 10.00 Fair CLR 78.1 73 85% 81 30.12 1020.3
20 08:56 Calm 10.00 A Few Clouds FEW010 75 72 90% 74 30.12 1020.3
20 07:56 Calm 10.00 Overcast OVC012 72 71.1 72 70 97% 30.12 1020.4
20 06:56 Calm 10.00 Fair CLR 71.1 69.1 94% 30.12 1020.3
20 05:56 Calm 10.00 Fair CLR 70 69.1 97% 30.11 1019.9
20 04:56 Calm 10.00 Fair CLR 70 69.1 97% 30.11 1020.1
20 03:56 Calm 10.00 Overcast SCT075 OVC110 70 69.1 97% 30.12 1020.2
20 02:56 Calm 10.00 Overcast OVC110 72 68 87% 30.12 1020.3
20 01:56 S 3 10.00 Mostly Cloudy FEW070 BKN110 71.1 68 81 71.1 90% 30.12 1020.2
20 00:56 S 6 10.00 Fair CLR 73 68 84% 30.13 1020.4
19 23:56 S 5 10.00 Overcast FEW070 BKN100 OVC110 75 68 79% 76 30.14 1020.8
19 22:56 S 5 10.00 Fair CLR 73.9 68 82% 30.13 1020.6
19 21:56 SE 7 10.00 Fair CLR 73.9 64.9 74% 30.12 1020.4
19 20:56 S 5 10.00 Fair CLR 77 66 69% 79 30.11 1019.9
19 19:56 S 7 10.00 Fair CLR 81 66.9 86 81 62% 83 30.09 1019.5
19 18:56 S 8 10.00 Fair CLR 82.9 66 57% 85 30.08 1019.0
19 17:56 S 3 10.00 Fair CLR 84.9 66 53% 87 30.08 1018.7
19 16:56 S 3 7.00 Partly Cloudy SCT080 84 64.9 53% 86 30.09 1019.1
19 15:56 S 7 10.00 Mostly Cloudy SCT049 BKN065 84 66 55% 86 30.11 1019.8
19 14:56 Calm 10.00 Mostly Cloudy SCT055 BKN070 82.9 64 53% 84 30.12 1020.3
19 13:56 SE 7 10.00 A Few Clouds FEW060 84 64 84.9 73 51% 85 30.14 1021.0
19 12:56 SE 6 10.00 Partly Cloudy SCT042 SCT085 82.9 64.9 55% 85 30.15 1021.4
19 11:56 Vrbl 7 10.00 Fair CLR 80.1 63 56% 81 30.15 1021.4
19 10:56 Vrbl 6 10.00 A Few Clouds FEW080 78.1 63 60% 80 30.15 1021.5
19 09:56 NE 8 10.00 A Few Clouds FEW070 77 63 62% 79 30.15 1021.3
19 08:56 NE 9 10.00 Overcast OVC080 75 62.1 64% 77 30.14 1021.1
19 07:56 N 9 10.00 Mostly Cloudy BKN075 73 62.1 73 68 69% 30.13 1020.6
19 06:56 N 7 10.00 A Few Clouds FEW110 72 61 68% 30.1 1019.5
19 05:56 N 9 10.00 Mostly Cloudy FEW075 BKN100 72 62.1 71% 30.07 1018.6
19 04:56 N 7 10.00 Overcast FEW070 OVC100 71.1 66 84% 30.05 1017.9
19 03:56 Calm 10.00 Overcast FEW060 SCT075 OVC100 70 69.1 97% 30.04 1017.6
19 02:56 Calm 10.00 Overcast OVC065 70 69.1 97% 30.03 1017.5
19 01:56 SE 5 8.00 Fair CLR 68 68 81 68 100% 30.03 1017.2
19 00:56 Calm 10.00 Partly Cloudy SCT120 71.1 70 96% 30.04 1017.5
18 23:56 Calm 10.00 Fair CLR 72 68 87% 30.02 1017.0
18 22:56 Calm 10.00 Overcast OVC090 73.9 69.1 85% 30.02 1016.9
18 21:56 Calm 10.00 A Few Clouds FEW100 75 69.1 82% 75 30.01 1016.7
18 20:56 Vrbl 3 10.00 Partly Cloudy SCT090 77 66.9 71% 79 29.99 1016.1
18 19:56 NE 5 10.00 Fair CLR 81 64.9 84.9 81 58% 83 29.97 1015.1
18 18:56 N 6 10.00 Partly Cloudy SCT120 82.9 63 51% 84 29.94 1014.2
18 17:56 N 7 10.00 Fair CLR 82.9 66 57% 85 29.95 1014.3
18 16:56 Vrbl 6 10.00 Fair CLR 84.9 66 53% 87 29.94 1014.2
18 15:56 N 10 10.00 Fair CLR 84 66 55% 86 29.95 1014.4
18 14:56 N 7 10.00 Light Rain FEW035 SCT065 BKN100 81 68 65% 84 29.98 1015.4
18 13:56 N 7 10.00 A Few Clouds FEW110 82 68 84 73.9 63% 85 29.98 1015.4
18 12:56 N 7 10.00 Fair CLR 82 68 63% 85 29.97 1015.2
18 11:56 N 10 10.00 Fair CLR 82.9 70 65% 87 29.97 1015.2
18 10:56 N 9 10.00 Fair CLR 79 69.1 72% 82 29.98 1015.4
18 09:56 N 9 10.00 Mostly Cloudy FEW085 BKN110 75.9 69.1 79% 77 29.98 1015.5
18 08:56 N 9 10.00 Fair CLR 75 68 79% 76 29.96 1015.0
18 07:56 N 7 10.00 Overcast OVC075 75 68 75 72 79% 76 29.95 1014.7
18 06:56 SE 3 10.00 Overcast OVC075 73 72 96% 29.93 1013.7
18 05:56 Calm 10.00 Fair CLR 73 69.1 87% 29.91 1013.1
18 04:56 Calm 10.00 Fair CLR 73 72 96% 29.89 1012.6
18 03:56 Calm 10.00 Fair CLR 73 72 96% 29.87 1011.7
18 02:56 Calm 10.00 Fair CLR 73.9 72 94% 29.87 1011.7
18 01:56 NW 5 10.00 Fair CLR 75 73 77 75 94% 73 29.86 1011.5
18 00:56 NW 5 10.00 A Few Clouds FEW012 75.9 73.9 94% 75 29.87 1011.8
17 23:56 SW 3 10.00 A Few Clouds FEW028 75.9 75 97% 75 29.88 1012.1
17 22:56 SW 3 10.00 Light Rain BKN090 OVC120 75.9 75 97% 75 29.87 1011.9
17 21:56 W 3 10.00 Overcast OVC090 75.9 75 97% 75 29.86 1011.7
17 20:56 Calm 10.00 Partly Cloudy SCT110 75.9 75 97% 75 29.85 1011.0
17 19:56 SW 3 10.00 A Few Clouds FEW070 75.9 75.9 96.1 75.9 100% 75 29.85 1011.0
17 18:56 S 6 10.00 Light Rain FEW055 SCT070 BKN085 75.9 75 97% 75 29.82 1010.3
17 17:56 Vrbl 7 8.00 Thunderstorm Rain FEW032 BKN070 OVC085 77 75 94% 78 29.86 1011.4
17 16:56 S 7 10.00 Partly Cloudy FEW060 SCT120 91.9 71.1 51% 99 29.79 1009.1
17 15:56 S 14 G 18 10.00 Fair CLR 96.1 72 46% 105 29.8 1009.3
17 14:56 S 10 10.00 A Few Clouds FEW065 96.1 72 46% 105 29.83 1010.5
17 13:56 SW 6 10.00 Fair CLR 93.9 70 95 78.1 46% 100 29.85 1011.0
Date Time (edt) Wind (mph) Vis. (mi.) Weather Sky Cond. Air Dwpt Max. Min. Relative Humidity Wind Chill (°F) Heat Index (°F) altimeter (in) sea level (mb) 1 hr 3 hr 6 hr
6 hour
Temperature (ºF) Pressure Precipitation (in)